Погода в Рылеве

Россия / Тульская область     53°51′03″N   36°50′06″E
темп.,
°C
ветер,
м/с
пор.,
м/с
влажн.,
%
обл.,
%
осадки,
мм/ч
давл.,
гПа
погр.,
м
19 сентября, вс
вс1900:00+6вюв91788100 4.9 1018626
03:00+6в91794100 13.0 1017594
06:00+6вюв81795100 6.7 1016630
09:00+6вюв91794100 12.4 1016663
12:00+7в101893100 5.3 1015660
15:00+7вюв101892100 9.2 1014852
18:00+7вюв91693100 3.8 1013853
21:00+7в81494100 4.8 1013746
20 сентября, пн
пн2000:00+7в71395100 0.4 1012659
03:00+7в71195100 0.5 1011603
06:00+7в61195100 0.1 1010540
09:00+7всв71296100 0.1 1010465
12:00+8в71295100 0.0 1010498
15:00+7в71397100 1.7 1009494
18:00+8в71297100 6.7 1009422
21:00+8в61297100 13.5 1010567
21 сентября, вт
вт2100:00+8в61197100 2.1 1009522
03:00+8юв2596100 2.4 1010284
06:00+8юв229587 0.2 101084
09:00+9вюв228590 0.3 1010379
12:00+12в226897 0.1 10091070
15:00+10св4481100 0.7 1009542
18:00+8св3595100 2.3 1009376
21:00+7ссв3497100 3.9 1009290
22 сентября, ср
ср2200:00+7с4597100 0.7 1009305
03:00+6с4697100 1.0 1009330
06:00+6ссз4697100 0.5 1009322
09:00+6с4697100 1.0 1010312
12:00+6с4597100 0.5 1010311
15:00+8ссз348993 0.6 1010481
18:00+7ссв3695100 0.4 1011412
21:00+6ссв359693 0.6 1011298
23 сентября, чт
чт2300:00+6с249598 0.0 1011255
03:00+6ссз2396100 0.0 1010193
06:00+6ссз2396100 0.0 1010189
09:00+6ссз1192100 0.0 1009277
12:00+7зсз2289100 0.1 1008346
15:00+7зюз2391100 0.3 1007331
18:00+6юз3691100 0.1 1007493
21:00+5юз4693100 0.1 1007819